Time,TemperatureF,DewpointF,PressureIn,WindDirection,WindDirectionDegrees,WindSpeedMPH,WindSpeedGustMPH,Humidity,HourlyPrecipIn,Conditions,Clouds,dailyrainin,SoftwareType,DateUTC
2013-11-11 00:03:00,-999.0,-99.9,30.01,SW,218,8.0,13.0,-999,-99.99,,,-99.99,,2013-11-11 05:03:00,
2013-11-11 00:13:00,-999.0,-99.9,29.99,SSW,207,8.0,17.0,-999,-99.99,,,-99.99,,2013-11-11 05:13:00,
2013-11-11 00:34:00,-999.0,-99.9,29.99,SW,221,9.0,16.0,-999,-99.99,,,-99.99,,2013-11-11 05:34:00,
2013-11-11 00:44:00,-999.0,-99.9,29.99,SW,217,9.0,17.0,-999,-99.99,,,-99.99,,2013-11-11 05:44:00,
2013-11-11 00:54:00,-999.0,-99.9,29.98,SSW,211,7.0,18.0,-999,-99.99,,,-99.99,,2013-11-11 05:54:00,
2013-11-11 01:03:00,-999.0,-99.9,29.98,SW,228,5.0,13.0,-999,-99.99,,,-99.99,,2013-11-11 06:03:00,
2013-11-11 01:22:00,-999.0,-99.9,29.98,SW,227,7.0,13.0,-999,-99.99,,,-99.99,,2013-11-11 06:22:00,
2013-11-11 01:42:00,-999.0,-99.9,29.97,SW,225,6.0,14.0,-999,-99.99,,,-99.99,,2013-11-11 06:42:00,
2013-11-11 01:52:00,-999.0,-99.9,29.96,SW,219,6.0,14.0,-999,-99.99,,,-99.99,,2013-11-11 06:52:00,
2013-11-11 02:02:00,-999.0,-99.9,29.95,SW,215,5.0,13.0,-999,-99.99,,,-99.99,,2013-11-11 07:02:00,
2013-11-11 02:22:00,-999.0,-99.9,29.94,SSW,212,5.0,11.0,-999,-99.99,,,-99.99,,2013-11-11 07:22:00,
2013-11-11 02:32:00,-999.0,-99.9,29.93,SW,216,5.0,11.0,-999,-99.99,,,-99.99,,2013-11-11 07:32:00,
2013-11-11 02:43:00,39.0,-99.9,29.93,SW,216,5.0,11.0,-999,-99.99,,,-99.99,,2013-11-11 07:43:00,
2013-11-11 03:02:00,-999.0,-99.9,29.91,SSW,207,7.0,12.0,-999,-99.99,,,-99.99,,2013-11-11 08:02:00,
2013-11-11 03:22:00,-999.0,-99.9,29.91,SW,216,6.0,13.0,-999,-99.99,,,-99.99,,2013-11-11 08:22:00,
2013-11-11 03:42:00,-999.0,-99.9,29.91,WSW,251,16.0,27.0,-999,-99.99,,,-99.99,,2013-11-11 08:42:00,
2013-11-11 04:02:00,-999.0,-99.9,29.91,West,269,10.0,20.0,-999,-99.99,,,-99.99,,2013-11-11 09:02:00,
2013-11-11 04:11:00,-999.0,-99.9,29.90,West,270,12.0,19.0,-999,-99.99,,,-99.99,,2013-11-11 09:11:00,
2013-11-11 04:22:00,-999.0,-99.9,29.90,West,267,11.0,19.0,-999,-99.99,,,-99.99,,2013-11-11 09:22:00,
2013-11-11 04:33:00,-999.0,-99.9,29.90,West,273,10.0,17.0,-999,-99.99,,,-99.99,,2013-11-11 09:33:00,
2013-11-11 04:54:00,-999.0,-99.9,29.89,West,272,8.0,12.0,-999,-99.99,,,-99.99,,2013-11-11 09:54:00,
2013-11-11 05:03:00,-999.0,-99.9,29.89,West,275,4.0,10.0,-999,-99.99,,,-99.99,,2013-11-11 10:03:00,
2013-11-11 05:13:00,-999.0,-99.9,29.88,West,267,6.0,16.0,-999,-99.99,,,-99.99,,2013-11-11 10:13:00,
2013-11-11 05:23:00,-999.0,-99.9,29.88,West,261,7.0,12.0,-999,-99.99,,,-99.99,,2013-11-11 10:23:00,
2013-11-11 05:33:00,-999.0,-99.9,29.88,West,274,5.0,11.0,-999,-99.99,,,-99.99,,2013-11-11 10:33:00,
2013-11-11 06:03:00,-999.0,-99.9,29.88,West,274,6.0,15.0,-999,-99.99,,,-99.99,,2013-11-11 11:03:00,
2013-11-11 06:21:00,-999.0,-99.9,29.88,West,277,10.0,14.0,-999,-99.99,,,-99.99,,2013-11-11 11:21:00,
2013-11-11 06:42:00,-999.0,-99.9,29.88,WNW,299,15.0,23.0,-999,-99.99,,,-99.99,,2013-11-11 11:42:00,
2013-11-11 07:02:00,-999.0,-99.9,29.89,NW,316,13.0,28.0,-999,-99.99,,,-99.99,,2013-11-11 12:02:00,
2013-11-11 07:22:00,-999.0,-99.9,29.89,NW,319,11.0,23.0,-999,-99.99,,,-99.99,,2013-11-11 12:22:00,
2013-11-11 07:32:00,-999.0,-99.9,29.90,NNW,330,19.0,27.0,-999,-99.99,,,-99.99,,2013-11-11 12:32:00,
2013-11-11 07:42:00,-999.0,-99.9,29.90,NNW,330,15.0,35.0,-999,-99.99,,,-99.99,,2013-11-11 12:42:00,
2013-11-11 07:52:00,-999.0,-99.9,29.90,NNW,331,16.0,24.0,-999,-99.99,,,-99.99,,2013-11-11 12:52:00,
2013-11-11 08:01:00,-999.0,-99.9,29.91,NW,319,13.0,27.0,-999,-99.99,,,-99.99,,2013-11-11 13:01:00,
2013-11-11 08:11:00,-999.0,-99.9,29.91,NW,313,13.0,24.0,-999,-99.99,,,-99.99,,2013-11-11 13:11:00,
2013-11-11 08:22:00,-999.0,-99.9,29.92,NW,325,12.0,21.0,-999,-99.99,,,-99.99,,2013-11-11 13:22:00,
2013-11-11 08:32:00,-999.0,-99.9,29.92,NW,321,11.0,23.0,-999,-99.99,,,-99.99,,2013-11-11 13:32:00,
2013-11-11 08:52:00,-999.0,-99.9,29.93,NNW,333,19.0,30.0,-999,-99.99,,,-99.99,,2013-11-11 13:52:00,
2013-11-11 09:02:00,-999.0,-99.9,29.94,NNW,328,13.0,30.0,-999,-99.99,,,-99.99,,2013-11-11 14:02:00,
2013-11-11 09:11:00,-999.0,-99.9,29.94,NNW,335,20.0,31.0,-999,-99.99,,,-99.99,,2013-11-11 14:11:00,
2013-11-11 09:22:00,-999.0,-99.9,29.95,NW,323,12.0,23.0,-999,-99.99,,,-99.99,,2013-11-11 14:22:00,
2013-11-11 09:32:00,-999.0,-99.9,29.95,NW,324,11.0,24.0,-999,-99.99,,,-99.99,,2013-11-11 14:32:00,
2013-11-11 09:52:00,-999.0,-99.9,29.95,NNW,337,18.0,27.0,-999,-99.99,,,-99.99,,2013-11-11 14:52:00,
2013-11-11 10:02:00,-999.0,-99.9,29.96,NNW,335,16.0,32.0,-999,-99.99,,,-99.99,,2013-11-11 15:02:00,
2013-11-11 10:11:00,-999.0,-99.9,29.96,NNW,336,19.0,32.0,-999,-99.99,,,-99.99,,2013-11-11 15:11:00,
2013-11-11 10:22:00,-999.0,-99.9,29.97,NNW,334,14.0,26.0,-999,-99.99,,,-99.99,,2013-11-11 15:22:00,
2013-11-11 10:33:00,-999.0,-99.9,29.97,NW,311,14.0,23.0,-999,-99.99,,,-99.99,,2013-11-11 15:33:00,
2013-11-11 10:44:00,-999.0,-99.9,29.98,NNW,341,18.0,29.0,-999,-99.99,,,-99.99,,2013-11-11 15:44:00,
2013-11-11 10:53:00,-999.0,-99.9,29.98,NNW,335,12.0,30.0,-999,-99.99,,,-99.99,,2013-11-11 15:53:00,
2013-11-11 11:03:00,-999.0,-99.9,29.98,NW,320,17.0,27.0,-999,-99.99,,,-99.99,,2013-11-11 16:03:00,
2013-11-11 11:13:00,-999.0,-99.9,29.98,NW,315,13.0,20.0,-999,-99.99,,,-99.99,,2013-11-11 16:13:00,
2013-11-11 11:23:00,-999.0,-99.9,29.99,NW,319,9.0,17.0,-999,-99.99,,,-99.99,,2013-11-11 16:23:00,
2013-11-11 11:33:00,-999.0,-99.9,29.99,NNW,328,12.0,24.0,-999,-99.99,,,-99.99,,2013-11-11 16:33:00,
2013-11-11 11:42:00,-999.0,-99.9,29.99,NNW,340,19.0,29.0,-999,-99.99,,,-99.99,,2013-11-11 16:42:00,
2013-11-11 11:53:00,-999.0,-99.9,29.99,NNW,334,13.0,22.0,-999,-99.99,,,-99.99,,2013-11-11 16:53:00,
2013-11-11 12:03:00,-999.0,-99.9,30.00,NW,318,10.0,19.0,-999,-99.99,,,-99.99,,2013-11-11 17:03:00,
2013-11-11 12:22:00,-999.0,-99.9,30.01,NNW,333,13.0,29.0,-999,-99.99,,,-99.99,,2013-11-11 17:22:00,
2013-11-11 12:33:00,-999.0,-99.9,30.01,NW,322,11.0,22.0,-999,-99.99,,,-99.99,,2013-11-11 17:33:00,
2013-11-11 12:43:00,-999.0,-99.9,30.01,NW,310,18.0,28.0,-999,-99.99,,,-99.99,,2013-11-11 17:43:00,
2013-11-11 12:52:00,-999.0,-99.9,30.01,NW,306,13.0,23.0,-999,-99.99,,,-99.99,,2013-11-11 17:52:00,
2013-11-11 13:02:00,-999.0,-99.9,30.01,NW,315,15.0,29.0,-999,-99.99,,,-99.99,,2013-11-11 18:02:00,
2013-11-11 13:13:00,28.0,-99.9,30.01,NW,315,15.0,29.0,-999,-99.99,,,-99.99,,2013-11-11 18:13:00,
2013-11-11 13:23:00,-999.0,-99.9,30.01,NW,309,15.0,22.0,-999,-99.99,,,-99.99,,2013-11-11 18:23:00,
2013-11-11 13:32:00,-999.0,-99.9,30.02,WNW,300,16.0,26.0,-999,-99.99,,,-99.99,,2013-11-11 18:32:00,
2013-11-11 13:42:00,-999.0,-99.9,30.02,NW,323,11.0,19.0,-999,-99.99,,,-99.99,,2013-11-11 18:42:00,
2013-11-11 13:52:00,-999.0,-99.9,30.03,WNW,298,17.0,27.0,-999,-99.99,,,-99.99,,2013-11-11 18:52:00,
2013-11-11 14:02:00,-999.0,-99.9,30.04,NW,306,11.0,19.0,-999,-99.99,,,-99.99,,2013-11-11 19:02:00,
2013-11-11 14:12:00,-999.0,-99.9,30.04,NW,317,13.0,20.0,-999,-99.99,,,-99.99,,2013-11-11 19:12:00,
2013-11-11 14:22:00,-999.0,-99.9,30.04,WNW,303,12.0,18.0,-999,-99.99,,,-99.99,,2013-11-11 19:22:00,
2013-11-11 14:32:00,-999.0,-99.9,30.04,WNW,298,11.0,22.0,-999,-99.99,,,-99.99,,2013-11-11 19:32:00,
2013-11-11 14:53:00,-999.0,-99.9,30.05,NW,306,12.0,23.0,-999,-99.99,,,-99.99,,2013-11-11 19:53:00,
2013-11-11 15:02:00,-999.0,-99.9,30.05,NW,310,18.0,27.0,-999,-99.99,,,-99.99,,2013-11-11 20:02:00,
2013-11-11 15:11:00,-999.0,-99.9,30.05,WNW,302,8.0,23.0,-999,-99.99,,,-99.99,,2013-11-11 20:11:00,
2013-11-11 15:22:00,-999.0,-99.9,30.06,NW,311,15.0,24.0,-999,-99.99,,,-99.99,,2013-11-11 20:22:00,
2013-11-11 15:32:00,-999.0,-99.9,30.06,WNW,303,14.0,25.0,-999,-99.99,,,-99.99,,2013-11-11 20:32:00,
2013-11-11 15:52:00,-999.0,-99.9,30.06,NNW,328,13.0,25.0,-999,-99.99,,,-99.99,,2013-11-11 20:52:00,
2013-11-11 16:02:00,-999.0,-99.9,30.07,NW,315,10.0,17.0,-999,-99.99,,,-99.99,,2013-11-11 21:02:00,
2013-11-11 16:12:00,-999.0,-99.9,30.07,NNW,328,14.0,23.0,-999,-99.99,,,-99.99,,2013-11-11 21:12:00,
2013-11-11 16:22:00,26.0,-99.9,30.08,NW,310,6.0,20.0,-999,-99.99,,,-99.99,,2013-11-11 21:22:00,
2013-11-11 16:34:00,-999.0,-99.9,30.08,WNW,302,13.0,24.0,-999,-99.99,,,-99.99,,2013-11-11 21:34:00,
2013-11-11 16:43:00,-999.0,-99.9,30.09,WNW,296,10.0,15.0,-999,-99.99,,,-99.99,,2013-11-11 21:43:00,
2013-11-11 16:55:00,-999.0,-99.9,30.09,WNW,300,11.0,18.0,-999,-99.99,,,-99.99,,2013-11-11 21:55:00,
2013-11-11 17:04:00,-999.0,-99.9,30.09,NW,313,11.0,19.0,-999,-99.99,,,-99.99,,2013-11-11 22:04:00,
2013-11-11 17:14:00,-999.0,-99.9,30.09,NW,310,7.0,21.0,-999,-99.99,,,-99.99,,2013-11-11 22:14:00,
2013-11-11 17:34:00,-999.0,-99.9,30.10,NW,324,14.0,25.0,-999,-99.99,,,-99.99,,2013-11-11 22:34:00,
2013-11-11 17:43:00,-999.0,-99.9,30.11,NW,309,9.0,16.0,-999,-99.99,,,-99.99,,2013-11-11 22:43:00,
2013-11-11 17:53:00,-999.0,-99.9,30.11,NW,323,11.0,20.0,-999,-99.99,,,-99.99,,2013-11-11 22:53:00,
2013-11-11 18:03:00,-999.0,-99.9,30.11,NW,320,9.0,16.0,-999,-99.99,,,-99.99,,2013-11-11 23:03:00,
2013-11-11 18:13:00,-999.0,-99.9,30.11,NNW,331,14.0,18.0,-999,-99.99,,,-99.99,,2013-11-11 23:13:00,
2013-11-11 18:22:00,-999.0,-99.9,30.12,NW,326,11.0,23.0,-999,-99.99,,,-99.99,,2013-11-11 23:22:00,
2013-11-11 18:34:00,-999.0,-99.9,30.13,NNW,329,18.0,26.0,-999,-99.99,,,-99.99,,2013-11-11 23:34:00,
2013-11-11 18:43:00,-999.0,-99.9,30.13,NW,320,16.0,24.0,-999,-99.99,,,-99.99,,2013-11-11 23:43:00,
2013-11-11 18:53:00,-999.0,-99.9,30.14,NNW,333,10.0,22.0,-999,-99.99,,,-99.99,,2013-11-11 23:53:00,
2013-11-11 19:03:00,-999.0,-99.9,30.15,NW,320,9.0,18.0,-999,-99.99,,,-99.99,,2013-11-12 00:03:00,
2013-11-11 19:12:00,-999.0,-99.9,30.15,NNW,332,17.0,24.0,-999,-99.99,,,-99.99,,2013-11-12 00:12:00,
2013-11-11 19:22:00,-999.0,-99.9,30.16,NNW,327,13.0,23.0,-999,-99.99,,,-99.99,,2013-11-12 00:22:00,
2013-11-11 19:32:00,-999.0,-99.9,30.17,NNW,330,15.0,24.0,-999,-99.99,,,-99.99,,2013-11-12 00:32:00,
2013-11-11 19:52:00,-999.0,-99.9,30.17,NNW,342,18.0,25.0,-999,-99.99,,,-99.99,,2013-11-12 00:52:00,
2013-11-11 20:02:00,-999.0,-99.9,30.18,NNW,346,19.0,28.0,-999,-99.99,,,-99.99,,2013-11-12 01:02:00,
2013-11-11 20:11:00,-999.0,-99.9,30.18,NNW,342,20.0,28.0,-999,-99.99,,,-99.99,,2013-11-12 01:11:00,
2013-11-11 20:22:00,-999.0,-99.9,30.19,NNW,343,20.0,30.0,-999,-99.99,,,-99.99,,2013-11-12 01:22:00,
2013-11-11 20:32:00,-999.0,-99.9,30.19,NNW,344,19.0,26.0,-999,-99.99,,,-99.99,,2013-11-12 01:32:00,
2013-11-11 20:42:00,-999.0,-99.9,30.19,NNW,341,21.0,32.0,-999,-99.99,,,-99.99,,2013-11-12 01:42:00,
2013-11-11 20:52:00,-999.0,-99.9,30.20,NNW,338,13.0,28.0,-999,-99.99,,,-99.99,,2013-11-12 01:52:00,
2013-11-11 21:01:00,-999.0,-99.9,30.21,NNW,343,17.0,32.0,-999,-99.99,,,-99.99,,2013-11-12 02:01:00,
2013-11-11 21:12:00,-999.0,-99.9,30.21,NNW,342,15.0,25.0,-999,-99.99,,,-99.99,,2013-11-12 02:12:00,
2013-11-11 21:22:00,-999.0,-99.9,30.21,NNW,341,16.0,21.0,-999,-99.99,,,-99.99,,2013-11-12 02:22:00,
2013-11-11 21:32:00,-999.0,-99.9,30.22,NNW,339,17.0,24.0,-999,-99.99,,,-99.99,,2013-11-12 02:32:00,
2013-11-11 21:52:00,-999.0,-99.9,30.23,NNW,348,17.0,23.0,-999,-99.99,,,-99.99,,2013-11-12 02:52:00,
2013-11-11 22:02:00,-999.0,-99.9,30.24,NNW,340,11.0,23.0,-999,-99.99,,,-99.99,,2013-11-12 03:02:00,
2013-11-11 22:12:00,-999.0,-99.9,30.24,NNW,348,15.0,23.0,-999,-99.99,,,-99.99,,2013-11-12 03:12:00,
2013-11-11 22:22:00,-999.0,-99.9,30.24,North,349,12.0,26.0,-999,-99.99,,,-99.99,,2013-11-12 03:22:00,
2013-11-11 22:34:00,-999.0,-99.9,30.25,NNW,348,13.0,25.0,-999,-99.99,,,-99.99,,2013-11-12 03:34:00,
2013-11-11 22:54:00,-999.0,-99.9,30.26,North,2,19.0,24.0,-999,-99.99,,,-99.99,,2013-11-12 03:54:00,
2013-11-11 23:05:00,-999.0,-99.9,30.27,North,355,20.0,24.0,-999,-99.99,,,-99.99,,2013-11-12 04:05:00,
2013-11-11 23:24:00,-999.0,-99.9,30.28,North,2,21.0,26.0,-999,-99.99,,,-99.99,,2013-11-12 04:24:00,
2013-11-11 23:33:00,-999.0,-99.9,30.29,North,351,13.0,26.0,-999,-99.99,,,-99.99,,2013-11-12 04:33:00,
2013-11-11 23:44:00,-999.0,-99.9,30.29,NNW,344,16.0,25.0,-999,-99.99,,,-99.99,,2013-11-12 04:44:00,
2013-11-11 23:53:00,-999.0,-99.9,30.29,NNW,347,16.0,23.0,-999,-99.99,,,-99.99,,2013-11-12 04:53:00,